TimeCST,TemperatureF,Dew PointF,Humidity,Sea Level PressureIn,VisibilityMPH,Wind Direction,Wind SpeedMPH,Gust SpeedMPH,PrecipitationIn,Events,Conditions,WindDirDegrees,DateUTC
12:52 AM,27.0,21.9,81,30.18,10.0,Calm,Calm,-,N/A,,Clear,0,2013-02-12 06:52:00
1:52 AM,27.0,21.0,78,30.16,10.0,Calm,Calm,-,N/A,,Clear,0,2013-02-12 07:52:00
2:52 AM,27.0,21.9,81,30.14,10.0,ENE,3.5,-,N/A,,Clear,60,2013-02-12 08:52:00
3:52 AM,28.0,21.9,78,30.12,10.0,East,3.5,-,N/A,,Clear,80,2013-02-12 09:52:00
4:52 AM,30.9,23.0,72,30.10,10.0,ENE,3.5,-,N/A,,Clear,70,2013-02-12 10:52:00
5:52 AM,28.0,21.9,78,30.12,10.0,Calm,Calm,-,N/A,,Clear,0,2013-02-12 11:52:00
6:52 AM,30.0,23.0,75,30.12,10.0,Calm,Calm,-,N/A,,Clear,0,2013-02-12 12:52:00
7:52 AM,30.9,25.0,79,30.15,10.0,NNE,3.5,-,N/A,,Partly Cloudy,30,2013-02-12 13:52:00
8:52 AM,35.1,26.1,70,30.10,10.0,NE,6.9,-,N/A,,Clear,40,2013-02-12 14:52:00
9:52 AM,37.9,27.0,65,30.11,10.0,East,5.8,-,N/A,,Partly Cloudy,90,2013-02-12 15:52:00
10:52 AM,43.0,27.0,53,30.10,10.0,East,6.9,-,N/A,,Clear,80,2013-02-12 16:52:00
11:52 AM,44.1,26.1,49,30.09,10.0,East,8.1,-,N/A,,Overcast,90,2013-02-12 17:52:00
12:52 PM,44.1,28.0,53,30.04,10.0,East,3.5,-,N/A,,Overcast,100,2013-02-12 18:52:00
1:52 PM,46.0,27.0,47,30.03,10.0,SSE,3.5,-,N/A,,Overcast,160,2013-02-12 19:52:00
2:52 PM,45.0,26.1,48,30.00,10.0,East,3.5,-,N/A,,Overcast,100,2013-02-12 20:52:00
3:52 PM,45.0,27.0,49,29.97,10.0,NE,6.9,-,N/A,,Overcast,50,2013-02-12 21:52:00
4:52 PM,44.1,28.0,53,29.96,10.0,NNE,5.8,-,N/A,,Overcast,30,2013-02-12 22:52:00
5:52 PM,41.0,32.0,70,29.96,10.0,ENE,11.5,-,0.01,Rain,Light Rain,70,2013-02-12 23:52:00
6:38 PM,37.9,33.1,83,29.94,10.0,North,10.4,-,0.01,Rain,Light Rain,10,2013-02-13 00:38:00
6:50 PM,37.4,33.8,87,29.95,10.0,North,9.2,-,0.01,Rain,Light Rain,10,2013-02-13 00:50:00
6:52 PM,37.9,33.1,83,29.98,10.0,North,9.2,-,0.01,Rain,Light Rain,10,2013-02-13 00:52:00
7:52 PM,36.0,34.0,93,29.99,8.0,NNW,13.8,-,0.00,Rain,Light Rain,340,2013-02-13 01:52:00
8:00 PM,35.1,33.1,92,29.96,9.0,NNW,13.8,-,0.00,Rain,Light Rain,340,2013-02-13 02:00:00
8:25 PM,34.0,33.1,96,29.95,4.0,NNW,13.8,-,0.00,Snow,Light Snow,340,2013-02-13 02:25:00
8:40 PM,34.0,33.1,96,29.95,6.0,NNW,15.0,-,0.00,Rain,Light Rain,340,2013-02-13 02:40:00
8:52 PM,34.0,33.1,96,29.99,6.0,North,10.4,-,0.01,Rain,Light Rain,360,2013-02-13 02:52:00
9:26 PM,34.0,33.1,96,29.97,2.5,NNE,6.9,-,0.01,Snow,Light Snow,30,2013-02-13 03:26:00
9:52 PM,33.1,32.0,96,30.00,2.0,North,6.9,-,0.02,Snow,Light Snow,350,2013-02-13 03:52:00
10:17 PM,33.1,32.0,96,29.97,3.0,North,4.6,-,0.00,Snow,Light Snow,350,2013-02-13 04:17:00
10:25 PM,33.1,33.1,100,29.97,2.5,North,3.5,-,0.00,Snow,Light Snow,360,2013-02-13 04:25:00
10:34 PM,33.1,32.0,96,29.97,3.0,Calm,Calm,-,0.00,Snow,Light Snow,0,2013-02-13 04:34:00
10:49 PM,33.8,32.0,93,29.97,2.5,Calm,Calm,-,0.01,Snow,Light Snow,0,2013-02-13 04:49:00
10:52 PM,33.1,32.0,96,29.99,2.5,North,3.5,-,0.01,Snow,Light Snow,350,2013-02-13 04:52:00
11:21 PM,33.1,32.0,96,29.96,2.0,Calm,Calm,-,0.00,Snow,Light Snow,0,2013-02-13 05:21:00
11:52 PM,33.1,32.0,96,29.98,2.5,Calm,Calm,-,0.01,Snow,Light Snow,0,2013-02-13 05:52:00